Regional Weather Roundup
Issued by NWS

Home | Current Version | Previous Version | Text Only | Print | Product List | Glossary On
Versions: 1 2 3 4 5 6 7 8 9 10 11 12 13 14 15 16 17 18 19 20 21 22 23 24 25 26 27
000
ASUS46 KPQR 171510
RWROR

OREGON REGIONAL WEATHER ROUNDUP
NATIONAL WEATHER SERVICE PORTLAND OR
800 AM PDT THU APR 17 2014

NOTE: "FAIR" INDICATES FEW OR NO CLOUDS BELOW 12,000 FEET WITH
NO SIGNIFICANT WEATHER AND/OR OBSTRUCTIONS TO VISIBILITY.

ORZ001>013-171600-
NORTHWEST OREGON


CITY           SKY/WX    TMP DP  RH WIND       PRES   REMARKS
ASTORIA        LGT RAIN  52  49  89 S9        29.86F FOG
NEWPORT        DRIZZLE   50  50 100 S7        29.94F
PORTLAND       LGT RAIN  51  50  96 E5        29.90F FOG
VANCOUVER WA   LGT RAIN  51  49  92 SE5       29.90S FOG
SCAPPOOSE      LGT RAIN  51  50  96 CALM      29.89S FOG
HILLSBORO      LGT RAIN  50  48  93 CALM      29.89S FOG
AURORA         LGT RAIN  50  49  96 S3        29.91S FOG
MCMINNVILLE    LGT RAIN  50  50 100 SW3       29.92R FOG
SALEM          LGT RAIN  52  48  87 CALM      29.91R FOG
CORVALLIS      CLOUDY    52  48  87 CALM      29.93R
EUGENE         LGT RAIN  51  47  86 CALM      29.93R
$$

ORZ021-028-171600-
SOUTHWEST OREGON


CITY           SKY/WX    TMP DP  RH WIND       PRES   REMARKS
NORTH BEND     CLOUDY    52  50  93 S7        29.97R
BROOKINGS      CLOUDY    49  47  93 VRB3      29.97S FOG
ROSEBURG       CLOUDY    52  45  77 CALM      29.93R
SEXTON SUMMIT  PTSUNNY   45  41  86 CALM      29.91R
MEDFORD        MOSUNNY   49  42  77 CALM      29.91R
$$

ORZ009-041-171600-
COLUMBIA GORGE


CITY           SKY/WX    TMP DP  RH WIND       PRES   REMARKS
TROUTDALE      LGT RAIN  51  49  92 CALM      29.90S FOG
THE DALLES     LGT RAIN  52  47  83 CALM      29.89R
$$

ORZ029>031-042>050-061>064-171600-
EASTERN OREGON


CITY           SKY/WX    TMP DP  RH WIND       PRES   REMARKS
REDMOND        CLOUDY    46  37  71 CALM      29.86F
BEND           CLOUDY    45  37  76 CALM      29.88S
KLAMATH FALLS  SUNNY     41  36  82 CALM      29.91S
LAKEVIEW       SUNNY     43  34  70 CALM      29.92F
HERMISTON      LGT RAIN  52  47  83 SW6       29.88R
PENDLETON      CLOUDY    48  41  76 CALM      29.87S
JOHN DAY       SUNNY     46  34  61 E6        29.89F
MEACHAM        CLOUDY    42  39  89 CALM      29.87F
LA GRANDE      CLOUDY    48  30  49 SE6       29.87S
BAKER CITY     PTSUNNY   45  32  60 CALM      29.91S
BURNS          MOSUNNY   43  30  60 CALM      29.92S
ROME             N/A     45  23  42 VRB3      29.92F
ONTARIO        MOSUNNY   44  28  53 CALM      29.96F
$$



USA.gov is the U.S. government's official web portal to all federal, state and local government web resources and services.